FW0323 Weather Reports


Display with metric or nautical units.
time (UTC)temp
F
wind
direction
speed
MPH
gust
MPH
rain 1hr
in
rain 24hr
in
rain mn
in
humidity
%
barometer
mb
20260906211526 67 79 1.0 7.0 0.00 0.07 0.07 55 1016.2
20260906210025 67 300 0.0 4.0 0.00 0.07 0.07 56 1016.3
20260906204525 67 141 0.0 3.0 0.00 0.07 0.07 57 1016.2
20260906203026 68 324 0.0 6.0 0.00 0.07 0.07 52 1016.1
20260906201524 69 94 1.0 6.0 0.00 0.07 0.07 47 1016.2
20260906200023 69 78 1.0 4.0 0.00 0.07 0.07 46 1016.3
20260906194523 70 309 0.0 5.0 0.00 0.07 0.07 46 1016.1
20260906193022 70 23 1.0 5.0 0.00 0.07 0.07 47 1016.1
20260906191522 71 56 2.0 6.0 0.00 0.07 0.07 48 1016.1
20260906190019 69 307 1.0 6.0 0.00 0.07 0.07 46 1016.4
20260906184526 69 58 1.0 3.0 0.00 0.07 0.07 57 1016.5
20260906183025 69 109 0.0 7.0 0.00 0.07 0.07 49 1016.6
20260906181540 70 349 1.0 2.0 0.00 0.07 0.07 48 1017.0
20260906180013 69 293 1.0 3.0 0.00 0.07 0.07 51 1016.9
20260906174515 69 86 2.0 6.0 0.00 0.07 0.07 41 1016.9
20260906173012 70 82 2.0 5.0 0.00 0.07 0.07 44 1017.0
20260906171512 70 334 1.0 6.0 0.00 0.07 0.07 41 1017.1
20260906170019 70 276 1.0 6.0 0.00 0.07 0.07 41 1017.4
20260906164508 70 19 1.0 5.0 0.00 0.07 0.07 44 1017.5
20260906163005 69 236 0.0 3.0 0.00 0.07 0.07 42 1017.6
20260906161506 68 81 1.0 10.0 0.00 0.07 0.07 44 1017.7
20260906160101 67 264 0.0 8.0 0.00 0.07 0.07 48 1017.8
20260906154559 67 77 1.0 4.0 0.00 0.07 0.07 55 1018.0
20260906153055 66 290 1.0 4.0 0.00 0.07 0.07 54 1018.0
20260906151553 65 98 1.0 4.0 0.00 0.07 0.07 58 1018.3
20260906150052 65 308 0.0 4.0 0.00 0.07 0.07 70 1018.4
20260906144548 64 11 0.0 3.0 0.00 0.09 0.07 68 1018.5
20260906143050 63 5 0.0 5.0 0.00 0.09 0.07 75 1018.7
20260906141542 61 2 0.0 4.0 0.00 0.09 0.07 74 1018.6
20260906140052 61 129 0.0 2.0 0.00 0.09 0.07 82 1018.6
20260906134538 60 47 0.0 3.0 0.00 0.09 0.07 81 1018.6
20260906133038 59 233 0.0 2.0 0.00 0.09 0.07 88 1018.6
20260906131532 58 45 1.0 5.0 0.00 0.09 0.07 90 1018.6
20260906130031 58 66 0.0 4.0 0.00 0.09 0.07 92 1018.6
20260906124529 58 328 0.0 2.0 0.00 0.09 0.07 94 1018.7
20260906123033 57 79 0.0 2.0 0.00 0.09 0.07 96 1018.7
20260906121528 56 359 0.0 2.0 0.00 0.09 0.07 97 1018.7
20260906120020 55 240 0.0 0.0 0.00 0.09 0.07 97 1018.7
20260906114534 54 240 0.0 0.0 0.00 0.09 0.07 97 1018.6
20260906113017 54 240 0.0 1.0 0.00 0.09 0.07 97 1018.5
20260906111616 53 240 0.0 1.0 0.00 0.09 0.07 97 1018.4
20260906110014 53 240 0.0 0.0 0.00 0.09 0.07 97 1018.2
20260906104514 54 240 0.0 1.0 0.00 0.09 0.07 97 1018.1
20260906103012 54 240 0.0 0.0 0.00 0.09 0.07 97 1018.0
20260906101514 54 240 0.0 0.0 0.01 0.09 0.07 97 1018.1
20260906100010 53 240 0.0 0.0 0.07 0.09 0.07 96 1018.1
20260906094510 53 240 0.0 0.0 0.07 0.09 0.07 96 1018.0
20260906093006 54 240 0.0 1.0 0.07 0.09 0.07 96 1017.8
20260906091514 54 207 0.0 1.0 0.05 0.07 0.05 95 1017.6
20260906090004 54 208 0.0 1.0 0.00 0.02 0.00 95 1017.6
20260906084502 53 208 0.0 0.0 0.00 0.02 0.00 96 1017.3
20260906083102 53 207 0.0 1.0 0.00 0.02 0.00 96 1017.3
20260906081601 52 208 0.0 1.0 0.00 0.02 0.00 96 1017.1
20260906080106 52 208 0.0 1.0 0.00 0.02 0.00 96 1017.0
20260906074557 52 207 0.0 0.0 0.00 0.02 0.00 96 1017.1
20260906073057 52 207 0.0 0.0 0.00 0.02 0.00 96 1017.2
20260906071603 52 207 0.0 0.0 0.00 0.02 0.00 95 1017.1
20260906070054 53 207 0.0 1.0 0.00 0.02 0.00 95 1017.1
20260906064555 52 208 0.0 1.0 0.00 0.02 0.00 96 1017.2
20260906063053 51 208 0.0 1.0 0.00 0.02 0.00 95 1016.9
20260906061552 52 210 0.0 1.0 0.00 0.02 0.00 95 1016.9
20260906060120 53 210 0.0 1.0 0.00 0.02 0.00 95 1016.9
20260906054548 52 211 0.0 1.0 0.00 0.02 0.00 95 1016.8
20260906053048 53 210 0.0 1.0 0.00 0.02 0.00 95 1016.9
20260906051547 52 210 0.0 0.0 0.00 0.02 0.00 95 1016.9
20260906050050 52 210 0.0 0.0 0.00 0.02 0.00 94 1016.9
20260906044544 53 210 0.0 1.0 0.00 0.02 0.00 94 1017.0
20260906043041 53 211 0.0 1.0 0.00 0.02 0.00 93 1017.1
20260906041539 54 210 0.0 1.0 0.00 0.02 0.00 92 1017.1
20260906040038 54 211 0.0 0.0 0.00 0.02 0.00 91 1017.1
20260906034536 55 211 0.0 0.0 0.00 0.02 0.02 90 1016.9
20260906033034 56 211 0.0 0.0 0.00 0.02 0.02 88 1016.8
20260906031553 56 211 0.0 0.0 0.00 0.02 0.02 86 1016.8
20260906030027 57 211 0.0 0.0 0.00 0.02 0.02 84 1016.7
20260906024527 58 211 0.0 1.0 0.00 0.02 0.02 81 1016.6
20260906023025 58 211 0.0 1.0 0.00 0.02 0.02 81 1016.7
20260906021525 59 349 0.0 1.0 0.00 0.02 0.02 81 1016.6
20260906020024 59 349 0.0 1.0 0.00 0.02 0.02 80 1016.5
20260906014526 60 350 0.0 0.0 0.00 0.02 0.02 78 1016.5
20260906013022 61 349 0.0 1.0 0.00 0.02 0.02 77 1016.5
20260906011523 61 18 0.0 2.0 0.00 0.02 0.02 78 1016.5
20260906010121 61 113 0.0 1.0 0.00 0.02 0.02 80 1016.5
20260906004519 60 113 0.0 0.0 0.00 0.02 0.02 79 1016.4
20260906003022 60 49 0.0 3.0 0.00 0.02 0.02 82 1016.2
20260906001518 59 279 0.0 1.0 0.00 0.02 0.02 86 1016.3
20260906000018 60 279 0.0 0.0 0.00 0.02 0.02 83 1016.1
20260905234513 61 279 0.0 0.0 0.00 0.02 0.02 81 1015.9
20260905233017 62 279 0.0 1.0 0.00 0.02 0.02 79 1015.9
20260905231513 63 279 0.0 1.0 0.00 0.02 0.02 76 1015.8
20260905230011 64 28 0.0 1.0 0.00 0.02 0.02 74 1015.5
20260905224512 65 25 0.0 1.0 0.00 0.02 0.02 72 1015.6
20260905223009 66 333 0.0 1.0 0.00 0.02 0.02 71 1015.5
20260905221507 66 348 0.0 3.0 0.00 0.02 0.02 70 1015.2
20260905220005 67 360 1.0 4.0 0.00 0.02 0.02 67 1015.0
20260905214503 66 11 0.0 4.0 0.00 0.02 0.02 65 1014.6
20260905213004 67 9 0.0 1.0 0.00 0.02 0.02 65 1014.5